Regional Weather Roundup
Issued by NWS

Home | Current Version | Previous Version | Graphics & Text | Print | Product List | Glossary On
Versions: 1 2 3 4 5 6 7 8 9 10 11 12 13 14 15 16 17 18 19 20 21 22 23 24 25 26 27 28 29 30 31 32 33 34 35 36 37 38 39 40 41 42 43 44 45 46 47 48 49 50
868
ASUS43 KMPX 292201
RWRMN
WEATHER ROUNDUP FOR MINNESOTA
NATIONAL WEATHER SERVICE TWIN CITIES/CHANHASSEN MN
500 PM CDT MON MAY 29 2017


NOTE: "FAIR" INDICATES FEW OR NO CLOUDS BELOW 12,000 FEET WITH NO
SIGNIFICANT WEATHER AND/OR OBSTRUCTIONS TO VISIBILITY. N/A MEANS
CURRENT SKY AND/OR WEATHER CONDITIONS ARE NOT AVAILABLE.

MNZ060>063-068>070-292300-
   Twin Cities Metro

CITY           SKY/WX    TMP DP  RH WIND       PRES   REMARKS
TWIN CITIES    PTSUNNY   63  48  58 NW18G24   29.82R
ST PAUL        CLOUDY    62  50  64 W16G24    29.82R
CRYSTAL        LGT RAIN  61  46  57 W17G29    29.82R
BLAINE         PTSUNNY   64  48  55 W20G28    29.81R
LAKEVILLE      LGT RAIN  55  52  88 NW5G10    29.84S
EDEN PRAIRIE   CLOUDY    64  51  62 W15G24    29.82S
SOUTH ST PAUL  PTSUNNY   63  48  58 W13G20    29.82R
LAKE ELMO      PTSUNNY   61  48  63 W15G21    29.82S
$$
MNZ001>005-007-008-013>017-022>024-027-028-292300-
   Northwest Minnesota

CITY           SKY/WX    TMP DP  RH WIND       PRES   REMARKS
BEMIDJI        CLOUDY    52  45  78 W14       29.82R
HALLOCK        CLOUDY    52  45  76 NW21G29   29.86S
ROSEAU         CLOUDY    52  41  66 NW18      29.82R
WARROAD        CLOUDY    52  41  66 NW17G23   29.81R
THIEF RVR FALL CLOUDY    52  45  76 NW21      29.86R
CROOKSTON      CLOUDY    54  48  82 N17       29.88S
FOSSTON        PTSUNNY   52  45  76 NW13      29.85F
DETROIT LAKES  HVY RAIN  52  46  82 NW17G28   29.89S
MOORHEAD       CLOUDY    57  48  72 NW15      29.90S
PARK RAPIDS    CLOUDY    56  44  64 NW18      29.84R
MAHNOMEN       CLOUDY    54  49  82 NW9       29.86F
$$
MNZ006-009>011-018-025>026-292300-
   North Central Minnesota

CITY           SKY/WX    TMP DP  RH WIND       PRES   REMARKS
BAUDETTE       CLOUDY    53  41  63 NW14      29.78S
FLAG ISLAND    CLOUDY    50  39  66 NW18      29.78R
INTL FALLS     CLOUDY    54  41  61 W13       29.75R
WASKISH        CLOUDY    54  43  66 NW16      29.80S
BIG FORK       CLOUDY    55  43  62 NW9       29.77S
LONGVILLE      CLOUDY    57  45  62 NW9G21    29.81S
GRAND RAPIDS   CLOUDY    55  44  66 W13       29.80S
CRANE LAKE     CLOUDY    52  48  87 NW7       29.74S
ORR            CLOUDY    52  43  71 NW12      29.73R
COOK           CLOUDY    54  46  76 W18       29.75S
WALKER         CLOUDY    54  46  73 NW9       29.81S
$$
MNZ012-019>021-037-292300-
   Northeast Minnesota

CITY           SKY/WX    TMP DP  RH WIND       PRES   REMARKS
DULUTH         CLOUDY    56  48  74 W13G21    29.73S
ELY            CLOUDY    54  50  87 W10G20    29.70S
HIBBING        CLOUDY    52  46  80 NW14      29.76R
EVELETH        PTSUNNY   53  46  79 W15G22    29.76R HAZE
DULUTH HARBOR  CLOUDY    59  52  77 MISG      29.74S
TWO HARBORS    CLOUDY    61  52  72 NW14G25   29.69S
SILVER BAY     CLOUDY    59  50  72 W9G21     29.67S
GRAND MARAIS     N/A     62  50  64 W12G20    29.61R
G MARAIS ARPRT CLOUDY    57  46  67 W16G22    29.64S
$$
MNZ029>031-032-039>041-046>048-054>057-064-292300-
   West Central Minnesota

CITY           SKY/WX    TMP DP  RH WIND       PRES   REMARKS
FERGUS FALLS   PTSUNNY   55  48  76 NW17      29.89S
WHEATON        CLOUDY    57  50  77 NW15      29.94F
MORRIS         LGT RAIN  57  52  82 W18G35    29.91R
ALEXANDRIA     CLOUDY    59  47  64 W17G23    29.89S
ELBOW LAKE     LGT RAIN  54  49  86 W18G31    29.91R
WADENA         CLOUDY    52  46  82 NW16      29.86R
GLENWOOD       PTSUNNY   57  46  67 NW18G25   29.89S
APPLETON       PTSUNNY   64  46  52 NW18G25   29.91S
BENSON         CLOUDY    63  46  55 N14       29.92R
ORTONVILLE     PTSUNNY   61  45  55 W15G21    29.92F
MADISON        PTSUNNY   64  48  55 NW17G23   29.93S
WILLMAR        FAIR      63  46  55 NW18G25   29.90S
$$
MNZ033>034-036-042>043-049>051-058-059-292300-
   Central Minnesota

CITY           SKY/WX    TMP DP  RH WIND       PRES   REMARKS
ST CLOUD       CLOUDY    58  46  64 NW18G28   29.85R
SAUK CENTRE    MOCLDY    59  45  59 W16G24    29.87S
PAYNESVILLE    PTSUNNY   60  42  52 NW17G24   29.88S
AITKIN         CLOUDY    55  45  67 NW14G22   29.80S
PINE RIVER     CLOUDY    57  46  67 NW7       29.85F
BRAINERD       CLOUDY    57  45  64 NW12      29.83F
STAPLES        CLOUDY    55  43  62 W16G22    29.85S
LONG PRAIRIE   PTSUNNY   59  45  58 W14       29.87S
LITTLE FALLS   CLOUDY    59  43  55 NW12G21   29.85F
LITCHFIELD     PTSUNNY   61  46  59 NW10G23   29.88S
BUFFALO        PTSUNNY   61  45  55 W20G28    29.86R
MAPLE LAKE     PTSUNNY   62  48  60 NW17G25   29.87R
HUTCHINSON     CLOUDY    65  47  52 W23       29.88S
$$
MNZ037-044-045-052-053-292300-
   East Central Minnesota

CITY           SKY/WX    TMP DP  RH WIND       PRES   REMARKS
PRINCETON      CLOUDY    59  46  63 W16G28    29.84R
MORA           MOSUNNY   55  45  67 NW12G25   29.82R
CAMBRIDGE      CLOUDY    61  46  59 NW20G28   29.81R
RUSH CITY      CLOUDY    61  49  64 W8G17     29.80R
MOOSE LAKE     CLOUDY    55  48  76 NW14G20   29.76R
HINCKLEY       CLOUDY    59  48  67 W14G22    29.79R
CLOQUET        CLOUDY    57  45  62 W16G25    29.75S
MCGREGOR       CLOUDY    55  45  67 NW14G23   29.80S
$$
MNZ071>073-080-081-089-090-097-098-292300-
   Southwest Minnesota

CITY           SKY/WX    TMP DP  RH WIND       PRES   REMARKS
MONTEVIDEO     PTSUNNY   61  52  72 N13       29.92F
CANBY          PTSUNNY   62  48  60 W14G22    29.95S
MARSHALL       PTSUNNY   61  49  64 NW23G30   29.93S
REDWOOD FALLS  PTSUNNY   63  46  54 NW22      29.91R
OLIVIA         PTSUNNY   61  46  59 NW16G24   29.90R
PIPESTONE      CLOUDY    61  41  48 NW18G29   29.98R
WINDOM         RAIN      55  50  82 W17G28    29.95S
WORTHINGTON    CLOUDY    63  44  50 W23G31    29.96S
JACKSON        CLOUDY    59  46  63 NW20G31   29.96R
TRACY          PTSUNNY   60  51  72 NW18G26   29.95S
SLAYTON        CLOUDY    61  47  59 NW24G30   29.96R
$$
MNZ065>067-074>077-082>085-091>093-292300-
   South Central Minnesota

CITY           SKY/WX    TMP DP  RH WIND       PRES   REMARKS
MANKATO        CLOUDY    61  48  62 W21G26    29.89S
NEW ULM        PTSUNNY   63  46  55 NW17G25   29.90R
ST JAMES       CLOUDY    55  52  88 W14       29.94R
FAIRMONT       PTSUNNY   62  48  60 NW23G29   29.93R
GLENCOE        PTSUNNY   65  48  54 W29G37    29.86R
FARIBAULT      CLOUDY    64  48  55 W20G28    29.85S
OWATONNA       MOSUNNY   61  48  63 W22G28    29.87S
WASECA         CLOUDY    59  50  72 W16       29.90S
ALBERT LEA     PTSUNNY   57  57 100 W7        29.90S
$$
MNZ078>079-086>088-094>096-292300-
   Southeast Minnesota

CITY           SKY/WX    TMP DP  RH WIND       PRES   REMARKS
ROCHESTER      PTSUNNY   63  50  62 W21G30    29.86F
RED WING       LGT RAIN  61  50  67 W9        29.81S
STANTON        LGT RAIN  62  52  67 W15       29.82S
DODGE CENTER   PTSUNNY   61  46  59 W23G31    29.86S
WINONA         CLOUDY    64  50  59 W10       29.82F
AUSTIN         PTSUNNY   61  46  59 W17G32    29.89R
PRESTON        CLOUDY    60  48  64 W13G21    29.87S
$$
ABBREVIATIONS USED IN REMARKS
   TC - TEMPERATURES IN CELSIUS
  WCI - WIND CHILL INDEX
   HX - HEAT INDEX
  VSB - VISIBILITY
$$




USA.gov is the U.S. government's official web portal to all federal, state and local government web resources and services.